Regional Weather Roundup
Issued by NWS

Home | Current Version | Previous Version | Graphics & Text | Print | Product List | Glossary On
Versions: 1 2 3 4 5 6 7 8 9 10 11 12 13 14 15 16 17 18 19 20 21 22 23 24 25 26 27 28 29 30 31 32 33 34 35 36 37 38 39 40 41 42 43 44 45 46 47 48 49 50
000
ASUS43 KIND 291800
RWRIN

WEATHER ROUNDUP FOR INDIANA
NATIONAL WEATHER SERVICE INDIANAPOLIS IN
100 PM EST THU JAN 29 2015

NOTE: "FAIR" INDICATES FEW OR NO CLOUDS BELOW 12,000 FEET WITH NO
SIGNIFICANT WEATHER AND/OR OBSTRUCTIONS TO VISIBILITY.

* - STATION DOES NOT REPORT WEATHER SUCH AS PRECIPITATION OR FOG.

+ - STATION NOT QUALITY CONTROLLED BY THE NATIONAL WEATHER SERVICE.
    USE DATA WITH CAUTION...ESPECIALLY DEWPOINT AND RELATIVE
    HUMIDITY OBSERVATIONS.

INZ001>003-010>013-019-020-291900-
NORTHWEST INDIANA

CITY           SKY/WX    TMP DP  RH WIND       PRES   REMARKS
GARY /AIRPORT/ CLOUDY    36  39 100 NW21G36   29.92R
VALPARAISO     NOT AVBL

$$

LMZ046-743>745-291900-
SOUTHERN LAKE MICHIGAN

STATION/POSITION TIME  TEMP WIND        PRES
                       AIR  DIR/SP/G
                 (UTC) (F)  (DEG/KT/KT) (MB)
MICHIGAN CITY    1700   34  310/ 29/ 32   N/A

$$

INZ004-005-014>016-021>024-291900-
NORTH CENTRAL INDIANA

CITY           SKY/WX    TMP DP  RH WIND       PRES   REMARKS
ELKHART        LGT RAIN  36  28  75 NW10G20   29.81R
GOSHEN         CLOUDY    35  30  82 NW16      29.79R WCI  25
6HR MIN TEMP:  35; 6HR MAX TEMP:  37; 6HR PCP: TRACE;

PERU/GRISSOM   DRIZZLE   34  31  89 NW18G28   29.84R FOG     WCI  23
6HR MIN TEMP:  34; 6HR MAX TEMP:  38; 6HR PCP: TRACE;

SOUTH BEND     CLOUDY    35  30  82 NW18G24   29.84R HAZE    WCI  24
6HR MIN TEMP:  35; 6HR MAX TEMP:  37; 6HR PCP: TRACE;


$$

INZ006>009-017-018-025>027-291900-
NORTHEAST INDIANA

CITY           SKY/WX    TMP DP  RH WIND       PRES   REMARKS
FORT WAYNE     CLOUDY    38  32  79 W17G24    29.77R
6HR MIN TEMP:  34; 6HR MAX TEMP:  39; 6HR PCP: TRACE;


$$

INZ028-029-035-036-043>045-051>053-291900-
WEST CENTRAL INDIANA

CITY           SKY/WX    TMP DP  RH WIND       PRES   REMARKS
GREENCASTLE +  CLOUDY    34  30  86 W9G18     29.94R FOG     WCI  26
LAFAYETTE      CLOUDY    33  31  92 W14       29.91R FOG     WCI  23
6HR MIN TEMP:  33; 6HR MAX TEMP:  42;

TERRE HAUTE    CLOUDY    36  31  82 NW18G26   30.00R
6HR MIN TEMP:  36; 6HR MAX TEMP:  44;


$$

INZ030>032-037>040-046>048-054>057-064-065-291900-
CENTRAL INDIANA

CITY           SKY/WX    TMP DP  RH WIND       PRES   REMARKS
COLUMBUS       CLOUDY    39  32  75 W20G31    29.91R
INDIANAPOLIS   DRIZZLE   33  32  96 W23G33    29.91R FOG     WCI  21
6HR MIN TEMP:  33; 6HR MAX TEMP:  45; 6HR PCP: TRACE;

-EAGLE CREEK   CLOUDY    35  32  88 W18G31    29.89R FOG     WCI  24
6HR MIN TEMP:  35; 6HR MAX TEMP:  45;

KOKOMO *+      CLOUDY    36  30  80 NW22      29.84R
6HR MIN TEMP:  36; 6HR MAX TEMP:  39;

MT COMFORT *+  CLOUDY    37  30  75 W17G31    29.87R
SHELBYVILLE    CLOUDY    39  33  79 W20G28    29.87R HAZE
6HR MIN TEMP:  39; 6HR MAX TEMP:  47;


$$

INZ033-034-041-042-049-050-058-059-291900-
EAST CENTRAL INDIANA

CITY           SKY/WX    TMP DP  RH WIND       PRES   REMARKS
MUNCIE         CLOUDY    37  34  89 W21G29    29.80R FOG
6HR MIN TEMP:  37; 6HR MAX TEMP:  42;


$$

INZ060-061-067>069-081>083-085>088-291900-
SOUTHWEST INDIANA

CITY           SKY/WX    TMP DP  RH WIND       PRES   REMARKS
EVANSVILLE     CLOUDY    44  35  70 NW15G26   30.07R
6HR MIN TEMP:  44; 6HR MAX TEMP:  54;

HUNTINGBURG *+ CLOUDY    43  34  70 W24G30    30.04R
6HR MIN TEMP:  43; 6HR MAX TEMP:  52;


$$

INZ062-063-066-070>080-084-089>092-291900-
SOUTH CENTRAL AND SOUTHEAST INDIANA

CITY           SKY/WX    TMP DP  RH WIND       PRES   REMARKS
BLOOMINGTON    CLOUDY    37  34  89 W15G25    29.95R FOG
6HR MIN TEMP:  37; 6HR MAX TEMP:  49; 6HR PCP: TRACE;


$$



USA.gov is the U.S. government's official web portal to all federal, state and local government web resources and services.